Stations météo

Publicité
Agen, France (7524): Température de l'air & dewpoint: 20.06.2017 17:00:00 - 26.06.2017 17:00:00 (CEST)Agen, France (7524): Température de l'air 5cm: 20.06.2017 17:00:00 - 26.06.2017 17:00:00 (CEST)Agen, France (7524): Température de l'air -20cm & Température de l'air -100cm: 20.06.2017 17:00:00 - 26.06.2017 17:00:00 (CEST)Agen, France (7524): Vitesse du vent & gusts: 20.06.2017 17:00:00 - 26.06.2017 17:00:00 (CEST)Agen, France (7524): Direction du vent: 20.06.2017 17:00:00 - 26.06.2017 17:00:00 (CEST)Agen, France (7524): reduced air pressure: 20.06.2017 17:00:00 - 26.06.2017 17:00:00 (CEST)Agen, France (7524): visibility: 20.06.2017 17:00:00 - 26.06.2017 17:00:00 (CEST)Agen, France (7524): Ensoleillement: 20.06.2017 17:00:00 - 26.06.2017 17:00:00 (CEST)Agen, France (7524): Quantités de précipitations: 20.06.2017 17:00:00 - 26.06.2017 17:00:00 (CEST)
Date & Time tt [°C] td [°C] tt 5cm [°C] tt -20cm [°C] tt -100cm [°C] ff [km/h] ff [knt] fx [km/h] fx [knt] dd ppp [hPa] vv [km] sd [min] rr [mm]
26.06.2017 17:00:00 22,2 17,1 20,1 21,1 18,6 16 9 36 20 WSW 1010,2 16 0 0,2
26.06.2017 16:00:00 27,3 16,3 28,9 21,0 18,6 19 10 30 16 WNW 1009,0 17 21 0,0
26.06.2017 15:00:00 28,5 18,0 30,4 20,9 18,6 16 9 32 17 WNW 1008,8 60 21 0,0
26.06.2017 14:00:00 28,9 16,1 39,2 20,9 18,6 4 2 23 12 WSW 1008,9 60 43 0,0
26.06.2017 13:00:00 28,2 16,1 31,3 20,8 18,6 11 6 26 14 SE 1008,9 53 52 0,0
26.06.2017 12:00:00 24,7 17,7 26,2 20,8 18,6 16 9 24 13 ESE 1009,5 45 4 0,0
26.06.2017 11:00:00 23,6 16,9 22,9 20,9 18,6 8 4 24 13 ESE 1009,5 45 0 0,0
26.06.2017 10:00:00 22,7 17,2 23,0 20,9 18,6 20 11 28 15 E 1008,5 34 1 0,0
26.06.2017 09:00:00 21,7 17,5 19,8 20,9 18,6 10 6 13 7 E 1010,1 30 0 0,0
26.06.2017 08:00:00 21,2 17,0 18,6 20,9 18,6 10 6 19 10 E 1011,2 42 14 0,0
26.06.2017 07:00:00 20,0 16,0 17,5 21,0 18,6 2 1 9 5 S 1011,0 60 0 0,0
26.06.2017 06:00:00 20,4 15,8 17,7 21,0 18,6 6 3 29 15 WSW 1010,8 56 0 0,0
26.06.2017 05:00:00 20,1 16,3 17,5 21,0 18,6 0 0 9 5 N 1010,8 60 0 0,0
26.06.2017 04:00:00 20,1 15,7 18,0 21,0 18,6 8 4 12 7 SE 1012,3 58 0 0,0
26.06.2017 03:00:00 20,8 16,2 17,3 21,1 18,6 0 0 5 3 N 1012,5 60 0 0,0
26.06.2017 02:00:00 21,6 15,9 17,8 21,2 18,6 0 0 4 2 N 1012,7 60 0 0,0
26.06.2017 01:00:00 22,4 14,8 18,2 21,2 18,6 3 2 5 3 WNW 1013,3 60 0 0,0
26.06.2017 00:00:00 22,1 14,2 18,2 21,2 18,6 0 0 8 4 N 1013,5 60 0 0,0
25.06.2017 23:00:00 23,5 14,2 18,7 21,2 18,6 4 2 6 3 SW 1014,0 58 0 0,0
25.06.2017 22:00:00 24,3 13,8 18,2 21,2 18,6 3 1 6 4 WSW 1014,3 0,3 0 0,0
25.06.2017 21:00:00 26,7 12,4 22,5 21,1 18,5 3 2 10 5 W 1014,2 19 0 0,0
25.06.2017 20:00:00 27,5 11,5 26,0 21,1 18,6 7 4 16 8 NNW 1014,6 19 44 0,0
25.06.2017 19:00:00 28,8 12,2 32,9 21,0 18,6 10 6 19 10 NW 1014,3 59 60 0,0
25.06.2017 18:00:00 29,3 12,3 39,9 20,9 18,6 5 3 16 9 NW 1015,0 60 60 0,0
25.06.2017 17:00:00 28,4 12,7 44,4 20,8 18,6 12 6 23 12 NW 1015,9 50 60 0,0
25.06.2017 16:00:00 27,7 12,9 47,5 20,7 18,6 4 2 18 10 E 1016,7 20 60 0,0
25.06.2017 15:00:00 26,3 12,7 46,8 20,6 18,5 7 4 21 12 WNW 1017,5 60 60 0,0
25.06.2017 14:00:00 25,7 13,9 45,2 20,6 18,6 7 4 16 9 N 1018,3 53 60 0,0
25.06.2017 13:00:00 24,5 13,7 35,3 20,6 18,6 9 5 18 10 NE 1019,2 60 56 0,0
25.06.2017 12:00:00 22,6 12,8 27,4 20,6 18,6 7 4 15 8 W 1019,8 60 29 0,0
25.06.2017 11:00:00 21,6 14,0 28,6 20,6 18,6 4 2 13 7 NW 1020,4 60 40 0,0
25.06.2017 10:00:00 21,6 14,3 21,0 20,6 18,6 7 4 12 6 NW 1020,5 60 60 0,0
25.06.2017 09:00:00 20,7 15,3 17,0 20,6 18,6 0 0 10 5 N 1020,5 52 60 0,0
25.06.2017 08:00:00 18,5 14,6 15,3 20,7 18,6 5 3 7 4 NW 1020,5 45 50 0,0
25.06.2017 07:00:00 17,0 14,3 15,2 20,7 18,6 3 2 7 4 W 1020,4 20 0 0,0
25.06.2017 06:00:00 16,0 14,2 11,3 20,8 18,6 3 2 10 5 WSW 1020,3 6 0 0,0
25.06.2017 05:00:00 15,3 13,1 10,9 20,9 18,6 7 4 10 5 WNW 1020,3 20 0 0,0
25.06.2017 04:00:00 16,0 13,8 11,8 21,0 18,6 5 3 9 5 WNW 1020,7 19 0 0,0
25.06.2017 03:00:00 17,1 14,0 12,0 21,0 18,5 5 3 8 5 W 1021,3 36 0 0,0
25.06.2017 02:00:00 18,1 14,4 12,0 21,0 18,5 4 2 6 3 W 1021,5 20 0 0,0
25.06.2017 01:00:00 19,0 14,7 14,4 21,1 18,5 4 2 5 3 W 1021,4 40 0 0,0
25.06.2017 00:00:00 19,6 14,4 15,0 21,1 18,5 4 2 10 6 W 1021,3 34 0 0,0
24.06.2017 23:00:00 20,7 14,8 16,8 21,2 18,5 7 4 13 7 W 1021,3 49 0 0,0
24.06.2017 22:00:00 21,8 14,4 19,5 21,2 18,5 11 6 19 10 NW 1020,3 56 0 0,0
24.06.2017 21:00:00 22,7 14,3 21,4 21,2 18,5 11 6 19 11 NW 1019,9 60 0 0,0
24.06.2017 20:00:00 23,2 13,9 22,7 21,2 18,5 13 7 22 12 NW 1020,0 60 0 0,0
24.06.2017 19:00:00 23,9 13,7 25,3 21,2 18,5 14 8 23 13 WNW 1019,7 59 0 0,0
24.06.2017 18:00:00 24,4 13,6 24,2 21,2 18,5 16 9 26 14 WNW 1019,9 57 5 0,0
24.06.2017 17:00:00 23,6 13,5 24,7 21,2 18,5 22 12 29 16 WNW 1020,1 56 0 0,0
24.06.2017 16:00:00 24,3 13,5 27,1 21,2 18,5 17 9 30 16 WNW 1020,1 60 0 0,0
24.06.2017 15:00:00 24,8 13,0 31,6 21,1 18,4 11 6 25 14 NW 1020,3 52 0 0,0
24.06.2017 14:00:00 24,4 13,3 31,9 21,1 18,4 11 6 27 15 NW 1020,8 18 0 0,0
24.06.2017 13:00:00 23,7 13,3 32,2 21,2 18,5 11 6 18 10 NW 1021,1 60 0 0,0
24.06.2017 12:00:00 22,7 12,3 27,6 21,2 18,4 8 4 18 10 NNW 1021,5 58 0 0,0
24.06.2017 11:00:00 21,7 12,5 26,8 21,2 18,5 10 5 17 9 NNW 1021,9 50 0 0,0
24.06.2017 10:00:00 20,8 13,0 22,4 21,2 18,4 7 4 16 9 NNW 1021,9 19 0 0,0
24.06.2017 09:00:00 19,4 13,3 20,2 21,3 18,4 11 6 15 8 NNW 1022,3 57 0 0,0
24.06.2017 08:00:00 18,3 13,6 18,2 21,4 18,4 8 4 13 7 NW 1022,3 52 0 0,0
24.06.2017 07:00:00 18,1 13,6 17,5 21,4 18,4 8 4 12 7 WNW 1022,5 59 0 0,0
24.06.2017 06:00:00 18,4 13,3 17,7 21,4 18,4 11 6 22 12 NW 1022,5 60 0 0,0
24.06.2017 05:00:00 19,3 13,7 18,6 21,5 18,4 17 9 22 12 WNW 1022,9 59 0 0,0
24.06.2017 04:00:00 20,3 14,2 19,0 21,5 18,4 11 6 18 10 NW 1023,1 59 0 0,0
24.06.2017 03:00:00 20,6 15,2 19,5 21,6 18,4 10 5 16 9 WNW 1023,0 45 0 0,0
24.06.2017 02:00:00 21,1 15,6 19,9 21,6 18,4 10 6 17 9 WNW 1023,4 44 0 0,0
24.06.2017 01:00:00 21,6 17,2 20,5 21,6 18,4 11 6 19 10 WNW 1023,5 40 0 0,0
24.06.2017 00:00:00 21,9 17,5 20,8 21,7 18,4 13 7 19 10 WNW 1023,4 39 0 0,0
23.06.2017 23:00:00 22,3 17,0 20,9 21,7 18,3 13 7 22 12 NW 1023,3 45 0 0,0
23.06.2017 22:00:00 23,1 17,8 21,5 21,7 18,4 10 6 18 10 W 1022,7 42 0 0,0
23.06.2017 21:00:00 23,6 17,8 22,6 21,7 18,3 9 5 16 9 W 1022,2 58 0 0,0
23.06.2017 20:00:00 23,8 17,8 24,1 21,7 18,4 12 6 17 9 WNW 1021,7 59 4 0,0
23.06.2017 19:00:00 24,2 18,2 25,5 21,7 18,3 10 5 18 10 W 1021,7 56 0 0,0
23.06.2017 18:00:00 24,1 18,1 25,8 21,7 18,3 11 6 16 9 W 1021,9 53 0 0,0
23.06.2017 17:00:00 24,1 18,1 29,0 21,7 18,3 10 5 18 10 WNW 1022,0 59 0 0,0
23.06.2017 16:00:00 23,8 18,4 26,9 21,7 18,3 11 6 20 11 WNW 1022,2 51 0 0,0
23.06.2017 15:00:00 23,2 18,5 23,7 21,8 18,3 14 7 23 13 NW 1022,5 56 0 0,0
23.06.2017 14:00:00 22,1 18,3 24,0 21,8 18,3 22 12 29 16 WNW 1022,7 40 0 0,0
23.06.2017 13:00:00 22,9 18,9 24,3 21,8 18,3 10 5 16 8 NW 1022,6 57 0 0,0
23.06.2017 12:00:00 22,1 18,5 24,1 21,8 18,3 10 5 14 8 WNW 1022,7 15 0 0,0
23.06.2017 11:00:00 21,8 18,4 23,9 21,9 18,3 8 4 18 10 W 1022,7 24 0 0,0
23.06.2017 10:00:00 21,2 18,4 22,5 21,9 18,3 11 6 18 10 WSW 1022,7 13 0 0,0
23.06.2017 09:00:00 20,7 17,9 20,9 22,0 18,3 11 6 18 10 W 1022,3 18 0 0,0
23.06.2017 08:00:00 20,5 17,9 20,5 22,1 18,3 9 5 18 10 W 1022,0 20 0 0,0
23.06.2017 07:00:00 20,2 18,0 20,2 22,1 18,2 11 6 19 11 W 1021,6 24 0 0,0
23.06.2017 06:00:00 20,4 17,8 20,3 22,2 18,2 11 6 19 10 WSW 1021,2 20 0 0,0
23.06.2017 05:00:00 20,9 17,9 20,7 22,2 18,2 13 7 21 12 W 1021,2 31 0 0,0
23.06.2017 04:00:00 21,2 18,0 20,9 22,3 18,2 11 6 21 12 W 1021,0 29 0 0,0
23.06.2017 03:00:00 21,4 18,2 21,2 22,3 18,2 16 9 24 13 W 1020,8 35 0 0,0
23.06.2017 02:00:00 21,6 18,6 21,4 22,4 18,2 12 7 29 16 W 1020,6 19 0 0,0
23.06.2017 01:00:00 21,8 18,8 21,7 22,4 18,2 20 11 34 18 W 1020,3 17 0 0,0
23.06.2017 00:00:00 22,3 18,5 22,0 22,5 18,2 20 11 35 19 WNW 1019,8 20 0 0,0
22.06.2017 23:00:00 22,7 18,9 21,7 22,5 18,2 23 12 34 18 WNW 1019,0 16 0 0,0
22.06.2017 22:00:00 23,8 18,7 22,8 22,4 18,2 23 13 40 21 W 1018,1 23 0 0,0
22.06.2017 21:00:00 28,6 20,1 26,4 22,4 18,2 22 12 38 20 W 1016,3 18 37 0,0
22.06.2017 20:00:00 33,3 20,5 30,6 22,3 18,1 27 15 35 19 WNW 1015,2 10 60 0,0
22.06.2017 19:00:00 36,0 19,4 35,1 22,2 18,2 12 6 23 12 W 1014,5 13 60 0,0
22.06.2017 18:00:00 37,2 14,5 41,2 22,2 18,1 6 3 19 10 WSW 1014,7 32 60 0,0
22.06.2017 17:00:00 37,2 15,6 45,8 22,0 18,1 8 5 22 12 WSW 1015,0 26 60 0,0
22.06.2017 16:00:00 36,4 17,5 47,9 21,9 18,1 5 3 17 9 WSW 1015,3 33 60 0,0
22.06.2017 15:00:00 35,3 18,8 50,7 21,8 18,1 6 3 16 8 W 1015,6 15 60 0,0
22.06.2017 14:00:00 34,6 20,2 50,7 21,7 18,1 5 3 18 10 W 1015,9 13 60 0,0
22.06.2017 13:00:00 33,3 20,1 48,5 21,7 18,1 7 4 18 10 N 1016,3 20 60 0,0
22.06.2017 12:00:00 32,1 19,7 42,2 21,7 18,1 6 3 14 8 W 1016,3 18 60 0,0
22.06.2017 11:00:00 30,3 19,0 33,8 21,7 18,1 3 2 10 6 WNW 1016,4 20 60 0,0
22.06.2017 10:00:00 27,3 20,6 27,9 21,7 18,1 3 1 10 5 NE 1016,7 19 55 0,0
22.06.2017 09:00:00 25,3 19,9 22,3 21,8 18,1 6 4 16 9 ESE 1016,3 18 60 0,0
22.06.2017 08:00:00 23,6 20,1 17,4 21,9 18,1 8 4 12 6 ESE 1015,7 16 60 0,0
22.06.2017 07:00:00 20,5 18,6 15,4 21,9 18,0 5 3 6 4 ESE 1015,3 16 4 0,0
22.06.2017 06:00:00 20,6 17,6 15,5 22,0 18,0 5 3 7 4 ESE 1015,0 20 0 0,0
22.06.2017 05:00:00 20,9 18,1 16,0 22,1 18,1 3 2 7 4 SE 1014,7 21 0 0,0
22.06.2017 04:00:00 22,4 17,7 16,8 22,1 18,1 0 0 5 3 N 1014,8 22 0 0,0
22.06.2017 03:00:00 23,3 18,4 17,5 22,2 18,0 3 2 4 2 WNW 1015,0 22 0 0,0
22.06.2017 02:00:00 23,6 18,3 18,0 22,2 18,0 0 0 5 3 N 1015,1 23 0 0,0
22.06.2017 01:00:00 25,1 18,5 19,2 22,3 18,0 5 3 11 6 W 1015,0 20 0 0,0
22.06.2017 00:00:00 25,5 18,7 19,6 22,3 18,0 0 0 4 2 N 1014,7 26 0 0,0
21.06.2017 23:00:00 27,4 18,7 20,7 22,3 18,0 0 0 3 2 N 1014,6 17 0 0,0
21.06.2017 22:00:00 30,3 18,7 22,6 22,3 18,0 0 0 9 5 N 1013,9 18 0 0,0
21.06.2017 21:00:00 33,6 18,5 26,8 22,2 18,0 4 2 9 5 WNW 1013,4 16 35 0,0
21.06.2017 20:00:00 35,1 15,9 31,1 22,1 18,0 9 5 11 6 WNW 1013,1 39 60 0,0
21.06.2017 19:00:00 36,5 16,6 36,0 22,0 18,0 0 0 13 7 N 1012,7 38 60 0,0
21.06.2017 18:00:00 35,9 15,6 40,1 21,9 18,0 8 5 15 8 ESE 1012,8 18 60 0,0
21.06.2017 17:00:00 36,0 17,2 43,5 21,8 17,9 6 3 18 10 S 1012,7 37 60 0,0
21.06.2017 16:00:00 35,5 16,8 47,1 21,7 17,9 8 4 17 9 SSW 1013,2 45 60 0,0
21.06.2017 15:00:00 35,0 16,8 48,1 21,6 17,9 6 4 19 10 ESE 1013,8 53 60 0,0
21.06.2017 14:00:00 34,2 19,8 47,3 21,5 17,9 8 4 19 10 ESE 1014,6 31 60 0,0
21.06.2017 13:00:00 32,5 20,1 46,2 21,4 17,9 10 5 17 9 E 1014,9 20 60 0,0
21.06.2017 12:00:00 30,7 21,5 41,7 21,4 17,9 6 3 13 7 E 1015,6 20 60 0,0
21.06.2017 11:00:00 29,0 21,2 34,8 21,4 17,9 5 3 13 7 E 1015,4 20 60 0,0
21.06.2017 10:00:00 26,8 20,9 27,0 21,4 17,9 7 4 12 6 E 1015,5 16 60 0,0
21.06.2017 09:00:00 24,8 20,9 21,9 21,5 17,9 4 2 21 11 ESE 1015,3 15 55 0,0
21.06.2017 08:00:00 22,5 20,2 18,4 21,5 17,9 13 7 18 10 ESE 1015,3 10 14 0,0
21.06.2017 07:00:00 21,2 19,3 16,7 21,6 17,9 6 3 9 5 SE 1015,2 13 0 0,0
21.06.2017 06:00:00 21,0 18,9 16,5 21,6 17,9 7 4 11 6 ESE 1014,6 16 0 0,0
21.06.2017 05:00:00 21,8 18,8 17,0 21,7 17,9 7 4 13 7 ESE 1014,2 20 0 0,0
21.06.2017 04:00:00 21,4 18,4 17,1 21,7 17,9 8 4 10 5 ESE 1014,4 23 0 0,0
21.06.2017 03:00:00 22,2 19,0 17,9 21,7 17,9 8 4 11 6 ESE 1014,8 23 0 0,0
21.06.2017 02:00:00 23,4 19,1 18,9 21,8 17,9 6 4 8 4 ESE 1015,0 27 0 0,0
21.06.2017 01:00:00 25,6 20,4 21,6 21,8 17,9 2 1 8 4 NE 1015,3 28 0 0,0
21.06.2017 00:00:00 25,9 19,1 21,8 21,8 17,8 5 3 8 4 SE 1015,1 31 0 0,0
20.06.2017 23:00:00 26,5 19,9 22,0 21,8 17,9 0 0 6 3 N 1015,0 18 0 0,0
20.06.2017 22:00:00 28,0 20,0 22,4 21,8 17,8 0 0 9 5 N 1014,6 13 0 0,0
20.06.2017 21:00:00 31,2 20,2 27,2 21,7 17,8 6 3 9 5 NNW 1014,2 16 26 0,0
20.06.2017 20:00:00 31,4 17,3 27,5 21,7 17,8 3 1 4 2 ESE 1013,9 38 0 0,0
20.06.2017 19:00:00 34,4 14,8 30,9 21,6 17,8 3 1 13 7 WSW 1013,8 41 47 0,0
20.06.2017 18:00:00 34,3 17,5 35,9 21,5 17,8 9 5 16 9 SSE 1014,1 40 43 0,0
20.06.2017 17:00:00 35,3 15,1 44,6 21,4 17,8 5 3 16 8 W 1014,7 47 60 0,0

tt = Température de l'air
td = dewpoint
tt 5cm = Température de l'air 5cm
tt -20cm = Température de l'air -20cm
tt -100cm = Température de l'air -100cm
ff = Vitesse du vent
fx = gusts
dd = Direction du vent
ppp = reduced air pressure
vv = visibility
sd = Ensoleillement
rr = Quantités de précipitations

stations d'obs. à proximité